Location: Tuolumne
(37.9608°N, 120.2374°W)
Time: 16:11:20
(UTC+00:00)

H-2A R/B - Pass Details

Date: 03 August 2024
Orbit: 731 x 832 km, 98.2° (Epoch: 08 September)

Event Time Altitude Azimuth Distance (km) Brightness Sun altitude
Rises 12:16:18 0° 12° (NNE) 3,166 5.9 -9.6°
Reaches altitude 10° 12:18:34 10° 12° (NNE) 2,245 5.1 -9.2°
Maximum altitude 12:23:30 86° 285° (WNW) 750 1.9 -8.4°
Drops below altitude 10° 12:28:30 10° 196° (SSW) 2,272 4.0 -7.5°
Sets 12:30:48 0° 196° (SSW) 3,207 4.8 -7.1°
